When you browse on this site, cookies collect data to enhance your experience and personalize the content and advertising you see.
Visit our Privacy Policy to learn more. By continuing to use the site, you agree to this use of cookies and data.
  • en Suisse
  • Liste des pays
  • À 7 jours
  • Température de l'eau
  • Carte météo
  • Widgets météo
  • user-avatar
    Se connecter

    Météo par heure à Monheim

    Ce jour, 29 Mai, Vendredi

    Heure Température Précipitation Vent Pression Humidité
    00:00 +10°C° 0 mm 2 m/s 769 mmHg 78%
    01:00 +10°C° 0 mm 2 m/s 769 mmHg 80%
    02:00 +9°C° 0 mm 2 m/s 769 mmHg 83%
    03:00 +10°C° 0 mm 1 m/s 769 mmHg 85%
    04:00 +11°C° 0 mm 1 m/s 769 mmHg 80%
    05:00 +13°C° 0 mm 1 m/s 769 mmHg 76%
    06:00 +14°C° 0 mm 1 m/s 768 mmHg 71%
    07:00 +16°C° 0 mm 1 m/s 768 mmHg 62%
    08:00 +17°C° 0 mm 2 m/s 768 mmHg 54%
    09:00 +19°C° 0 mm 2 m/s 768 mmHg 46%
    10:00 +20°C° 0 mm 2 m/s 767 mmHg 42%
    11:00 +21°C° 0 mm 3 m/s 767 mmHg 38%
    12:00 +22°C° 0 mm 3 m/s 766 mmHg 34%
    13:00 +22°C° 0 mm 3 m/s 766 mmHg 34%
    14:00 +23°C° 0 mm 4 m/s 765 mmHg 35%
    15:00 +23°C° 0 mm 4 m/s 765 mmHg 35%
    16:00 +22°C° 0 mm 4 m/s 765 mmHg 39%
    17:00 +21°C° 0 mm 4 m/s 765 mmHg 44%
    18:00 +20°C° 0 mm 4 m/s 764 mmHg 48%
    19:00 +18°C° 0 mm 4 m/s 765 mmHg 51%
    20:00 +17°C° 0 mm 3 m/s 765 mmHg 54%
    21:00 +14°C° 0 mm 3 m/s 765 mmHg 57%
    22:00 +14°C° 0 mm 3 m/s 765 mmHg 59%
    23:00 +13°C° 0 mm 3 m/s 765 mmHg 62%

    Demain, 30 Mai, Samedi

    Heure Température Précipitation Vent Pression Humidité
    00:00 +13°C° 0 mm 2 m/s 766 mmHg 64%
    01:00 +12°C° 0 mm 2 m/s 765 mmHg 67%
    02:00 +12°C° 0 mm 2 m/s 765 mmHg 69%
    03:00 +10°C° 0 mm 2 m/s 765 mmHg 72%
    04:00 +13°C° 0 mm 2 m/s 765 mmHg 68%
    05:00 +14°C° 0 mm 2 m/s 765 mmHg 65%
    06:00 +15°C° 0 mm 2 m/s 765 mmHg 61%
    07:00 +17°C° 0 mm 2 m/s 765 mmHg 55%
    08:00 +18°C° 0 mm 2 m/s 765 mmHg 49%
    09:00 +20°C° 0 mm 3 m/s 765 mmHg 42%
    10:00 +21°C° 0 mm 3 m/s 764 mmHg 41%
    11:00 +21°C° 0 mm 3 m/s 764 mmHg 39%
    12:00 +22°C° 0 mm 4 m/s 764 mmHg 37%
    13:00 +22°C° 0 mm 4 m/s 764 mmHg 38%
    14:00 +22°C° 0 mm 4 m/s 763 mmHg 38%
    15:00 +22°C° 0 mm 4 m/s 763 mmHg 38%
    16:00 +21°C° 0 mm 4 m/s 763 mmHg 42%
    17:00 +20°C° 0 mm 4 m/s 763 mmHg 45%
    18:00 +19°C° 0 mm 4 m/s 763 mmHg 48%
    19:00 +18°C° 0 mm 3 m/s 763 mmHg 52%
    20:00 +17°C° 0 mm 3 m/s 764 mmHg 55%
    21:00 +14°C° 0 mm 3 m/s 764 mmHg 59%
    22:00 +14°C° 0 mm 3 m/s 764 mmHg 63%
    23:00 +14°C° 0 mm 2 m/s 764 mmHg 66%

    Après-demain, 31 Mai, Dimanche

    Heure Température Précipitation Vent Pression Humidité
    00:00 +13°C° 0 mm 2 m/s 764 mmHg 70%
    01:00 +13°C° 0 mm 1 m/s 764 mmHg 72%
    02:00 +12°C° 0 mm 1 m/s 764 mmHg 74%
    03:00 +12°C° 0 mm 1 m/s 764 mmHg 76%
    04:00 +13°C° 0 mm 1 m/s 764 mmHg 72%
    05:00 +14°C° 0 mm 2 m/s 764 mmHg 68%
    06:00 +15°C° 0 mm 2 m/s 764 mmHg 64%
    07:00 +16°C° 0 mm 3 m/s 764 mmHg 56%
    08:00 +17°C° 0 mm 3 m/s 764 mmHg 48%
    09:00 +19°C° 0 mm 4 m/s 764 mmHg 40%
    10:00 +20°C° 0 mm 4 m/s 764 mmHg 39%
    11:00 +20°C° 0 mm 4 m/s 763 mmHg 38%
    12:00 +21°C° 0 mm 4 m/s 763 mmHg 37%
    13:00 +22°C° 0 mm 4 m/s 763 mmHg 38%
    14:00 +22°C° 0 mm 4 m/s 763 mmHg 40%
    15:00 +22°C° 0 mm 4 m/s 762 mmHg 41%
    16:00 +21°C° 0 mm 4 m/s 762 mmHg 46%
    17:00 +20°C° 0 mm 4 m/s 762 mmHg 50%
    18:00 +19°C° 0 mm 4 m/s 762 mmHg 55%
    19:00 +18°C° 0 mm 3 m/s 762 mmHg 59%
    20:00 +17°C° 0 mm 3 m/s 763 mmHg 62%
    21:00 +16°C° 0 mm 3 m/s 763 mmHg 66%
    22:00 +15°C° 0 mm 2 m/s 763 mmHg 69%
    23:00 +15°C° 0 mm 2 m/s 763 mmHg 73%

    1 Juin, Lundi

    Heure Température Précipitation Vent Pression Humidité
    00:00 +14°C° 0 mm 1 m/s 763 mmHg 76%
    01:00 +13°C° 0 mm 1 m/s 763 mmHg 78%
    02:00 +13°C° 0 mm 1 m/s 763 mmHg 80%
    03:00 +13°C° 0 mm 1 m/s 762 mmHg 82%
    04:00 +14°C° 0 mm 1 m/s 762 mmHg 77%
    05:00 +15°C° 0 mm 1 m/s 762 mmHg 73%
    06:00 +16°C° 0 mm 1 m/s 762 mmHg 69%
    07:00 +19°C° 0 mm 1 m/s 762 mmHg 62%
    08:00 +21°C° 0 mm 1 m/s 762 mmHg 55%
    09:00 +23°C° 0 mm 1 m/s 762 mmHg 49%
    10:00 +24°C° 0 mm 2 m/s 761 mmHg 45%
    11:00 +25°C° 0 mm 2 m/s 761 mmHg 42%
    12:00 +26°C° 0 mm 2 m/s 761 mmHg 39%
    13:00 +26°C° 0 mm 2 m/s 760 mmHg 40%
    14:00 +26°C° 0 mm 3 m/s 760 mmHg 42%
    15:00 +27°C° 0 mm 3 m/s 760 mmHg 43%
    16:00 +26°C° 0 mm 3 m/s 759 mmHg 47%
    17:00 +25°C° 0 mm 3 m/s 759 mmHg 51%
    18:00 +24°C° 0 mm 3 m/s 759 mmHg 55%
    19:00 +22°C° 0 mm 3 m/s 759 mmHg 58%
    20:00 +20°C° 0 mm 3 m/s 759 mmHg 62%
    21:00 +19°C° 0 mm 3 m/s 760 mmHg 65%
    22:00 +18°C° 0 mm 3 m/s 759 mmHg 67%
    23:00 +18°C° 0 mm 3 m/s 759 mmHg 68%

    2 Juin, Mardi

    Heure Température Précipitation Vent Pression Humidité
    00:00 +17°C° 0 mm 3 m/s 759 mmHg 70%
    01:00 +17°C° 0 mm 3 m/s 759 mmHg 73%
    02:00 +16°C° 0 mm 2 m/s 759 mmHg 76%
    03:00 +15°C° 0 mm 2 m/s 759 mmHg 79%
    04:00 +16°C° 0 mm 2 m/s 758 mmHg 76%
    05:00 +17°C° 0 mm 2 m/s 758 mmHg 72%
    06:00 +18°C° 0 mm 3 m/s 758 mmHg 68%
    07:00 +20°C° 0 mm 3 m/s 758 mmHg 61%
    08:00 +22°C° 0 mm 3 m/s 757 mmHg 54%
    09:00 +25°C° 0 mm 4 m/s 757 mmHg 47%
    10:00 +26°C° 0 mm 4 m/s 756 mmHg 43%
    11:00 +27°C° 0 mm 3 m/s 756 mmHg 40%
    12:00 +28°C° 0 mm 3 m/s 756 mmHg 36%
    13:00 +28°C° 0 mm 4 m/s 755 mmHg 36%
    14:00 +28°C° 0 mm 4 m/s 754 mmHg 36%
    15:00 +28°C° 0 mm 4 m/s 753 mmHg 37%
    16:00 +27°C° 0 mm 4 m/s 753 mmHg 41%
    17:00 +26°C° 0 mm 3 m/s 753 mmHg 46%
    18:00 +25°C° 0 mm 3 m/s 752 mmHg 51%
    19:00 +24°C° 0 mm 3 m/s 752 mmHg 55%
    20:00 +22°C° 0 mm 3 m/s 752 mmHg 59%
    21:00 +20°C° 0 mm 4 m/s 752 mmHg 63%
    22:00 +20°C° 0 mm 3 m/s 752 mmHg 64%
    23:00 +19°C° 0 mm 3 m/s 752 mmHg 66%

    3 Juin, Mercredi

    Heure Température Précipitation Vent Pression Humidité
    00:00 +19°C° 0 mm 3 m/s 752 mmHg 68%
    01:00 +18°C° 0 mm 3 m/s 751 mmHg 71%
    02:00 +18°C° 0 mm 3 m/s 751 mmHg 73%
    03:00 +17°C° 0 mm 3 m/s 751 mmHg 76%
    04:00 +18°C° 0 mm 3 m/s 751 mmHg 74%
    05:00 +19°C° 0 mm 3 m/s 751 mmHg 71%
    06:00 +19°C° 0 mm 4 m/s 751 mmHg 69%
    07:00 +20°C° 0 mm 4 m/s 751 mmHg 65%
    08:00 +22°C° 0 mm 4 m/s 751 mmHg 62%
    09:00 +23°C° 0 mm 4 m/s 751 mmHg 58%
    10:00 +25°C° 0.2 mm 3 m/s 751 mmHg 56%
    11:00 +25°C° 0.2 mm 3 m/s 750 mmHg 54%
    12:00 +26°C° 0.2 mm 3 m/s 750 mmHg 52%
    13:00 +27°C° 0.1 mm 3 m/s 750 mmHg 49%
    14:00 +27°C° 0.1 mm 4 m/s 750 mmHg 47%
    15:00 +27°C° 0.1 mm 4 m/s 749 mmHg 44%
    16:00 +26°C° 0 mm 4 m/s 749 mmHg 47%
    17:00 +25°C° 0 mm 3 m/s 749 mmHg 51%
    18:00 +25°C° 0 mm 3 m/s 749 mmHg 54%
    19:00 +22°C° 0.1 mm 3 m/s 750 mmHg 58%
    20:00 +21°C° 0.1 mm 2 m/s 750 mmHg 62%
    21:00 +20°C° 0.1 mm 2 m/s 751 mmHg 65%
    22:00 +19°C° 0 mm 2 m/s 751 mmHg 68%
    23:00 +19°C° 0 mm 2 m/s 751 mmHg 71%
    Voir plus